HLY402 KJFK-EDDF

Flight info

Callsign HLY402
Flight time 6h 54m
Altitude 35000
Route GREKI DCT JUDDS DCT MARTN DCT TOPPS N635A RIKAL/M085F370 DCT 53N050W 55N040W 56N030W 56N020W DCT RESNO DCT NETKI/N0489F370 DCT MORAG/N0487F390 DCT NUCHU L607 KONAN UL607 SPI T180 NIVNU T847 IMCOM IMCOM1D
Aircraft A35K/H-SDE2E3GHIJ3J4J5LM1ORWXY/LB1D1

Departure

Time 2026-05-09 09:02
Airport John F. Kennedy International Airport (KJFK)

Arrival

Time 2026-05-09 15:57
Airport Frankfurt Main Airport (EDDF)
Time Latitude Longitude Altitude Speed Heading
2026-05-09 08:21 40.64052 -73.77703 26 ft 0 kts 331°
2026-05-09 08:50 40.64052 -73.77702 26 ft 1 kts 331°
2026-05-09 08:51 40.64031 -73.77688 32 ft 4 kts 331°
2026-05-09 08:51 40.64008 -73.77671 32 ft 2 kts 331°
2026-05-09 08:51 40.63988 -73.77660 32 ft 4 kts
2026-05-09 08:51 40.63974 -73.77677 32 ft 4 kts 74°
2026-05-09 08:52 40.63967 -73.77704 32 ft 0 kts 60°
2026-05-09 08:54 40.63968 -73.77702 31 ft 1 kts 60°
2026-05-09 08:54 40.63977 -73.77683 29 ft 4 kts 59°
2026-05-09 08:54 40.64002 -73.77633 32 ft 6 kts 54°
2026-05-09 08:55 40.64022 -73.77599 30 ft 8 kts 51°
2026-05-09 08:55 40.64079 -73.77521 31 ft 10 kts 42°
2026-05-09 08:55 40.64110 -73.77477 29 ft 8 kts 67°
2026-05-09 08:55 40.64093 -73.77440 32 ft 5 kts 141°
2026-05-09 08:56 40.64057 -73.77418 29 ft 6 kts 163°
2026-05-09 08:56 40.64011 -73.77431 31 ft 8 kts 208°
2026-05-09 08:56 40.63960 -73.77471 32 ft 10 kts 211°
2026-05-09 08:56 40.63897 -73.77521 32 ft 12 kts 211°
2026-05-09 08:57 40.63823 -73.77580 28 ft 13 kts 211°
2026-05-09 08:57 40.63738 -73.77645 29 ft 15 kts 210°
2026-05-09 08:57 40.63646 -73.77717 32 ft 16 kts 210°
2026-05-09 08:57 40.63545 -73.77795 32 ft 17 kts 210°
2026-05-09 08:58 40.63437 -73.77878 27 ft 18 kts 211°
2026-05-09 08:58 40.63325 -73.77966 27 ft 19 kts 211°
2026-05-09 08:58 40.63202 -73.78015 30 ft 18 kts 186°
2026-05-09 08:58 40.63077 -73.78062 28 ft 20 kts 212°
2026-05-09 08:59 40.62953 -73.78162 27 ft 22 kts 211°
2026-05-09 08:59 40.62821 -73.78266 26 ft 23 kts 211°
2026-05-09 08:59 40.62685 -73.78374 27 ft 23 kts 211°
2026-05-09 08:59 40.62547 -73.78483 28 ft 23 kts 211°
2026-05-09 09:00 40.62408 -73.78593 28 ft 24 kts 211°
2026-05-09 09:00 40.62278 -73.78661 28 ft 16 kts 162°
2026-05-09 09:00 40.62245 -73.78549 29 ft 14 kts 69°
2026-05-09 09:00 40.62296 -73.78491 29 ft 0 kts 31°
2026-05-09 09:01 40.62410 -73.78402 31 ft 51 kts 31°
2026-05-09 09:01 40.62904 -73.78016 29 ft 114 kts 31°
2026-05-09 09:01 40.63749 -73.77355 27 ft 167 kts 30°
2026-05-09 09:02 40.64794 -73.76571 579 ft 171 kts 31°
2026-05-09 09:02 40.65839 -73.75778 1167 ft 180 kts 31°
2026-05-09 09:02 40.66997 -73.74890 1431 ft 206 kts 30°
2026-05-09 09:02 40.68316 -73.73878 1627 ft 234 kts 30°
2026-05-09 09:03 40.69836 -73.72833 1917 ft 257 kts 23°
2026-05-09 09:03 40.71511 -73.71871 2539 ft 266 kts 22°
2026-05-09 09:03 40.73235 -73.70921 3197 ft 273 kts 21°
2026-05-09 09:03 40.75018 -73.69970 3831 ft 279 kts 19°
2026-05-09 09:04 40.76837 -73.69015 4514 ft 283 kts 18°
2026-05-09 09:04 40.78678 -73.68058 5212 ft 286 kts 18°
2026-05-09 09:04 40.80542 -73.67092 5930 ft 289 kts 17°
2026-05-09 09:04 40.82422 -73.66116 6702 ft 291 kts 17°
2026-05-09 09:05 40.84311 -73.65132 7438 ft 293 kts 17°
2026-05-09 09:05 40.86220 -73.64132 8197 ft 296 kts 16°
2026-05-09 09:05 40.88144 -73.63123 8992 ft 299 kts 15°
2026-05-09 09:05 40.90084 -73.62107 9760 ft 302 kts 15°
2026-05-09 09:06 40.92056 -73.61075 10363 ft 311 kts 15°
2026-05-09 09:06 40.94128 -73.60002 10674 ft 329 kts 15°
2026-05-09 09:06 40.96294 -73.58882 10972 ft 348 kts 15°
2026-05-09 09:06 40.98602 -73.57681 11288 ft 365 kts 15°
2026-05-09 09:07 41.01016 -73.56415 11582 ft 381 kts 16°
2026-05-09 09:07 41.03524 -73.55092 11961 ft 394 kts 16°
2026-05-09 09:07 41.06088 -73.53731 12549 ft 399 kts 16°
2026-05-09 09:07 41.08674 -73.52353 13235 ft 402 kts 16°
2026-05-09 09:08 41.11287 -73.50961 13843 ft 407 kts 16°
2026-05-09 09:08 41.13929 -73.49557 14388 ft 412 kts 16°
2026-05-09 09:08 41.16609 -73.48137 14919 ft 417 kts 16°
2026-05-09 09:08 41.19318 -73.46703 15460 ft 422 kts 15°
2026-05-09 09:09 41.22062 -73.45251 16035 ft 426 kts 15°
2026-05-09 09:09 41.24826 -73.43786 16572 ft 431 kts 15°
2026-05-09 09:09 41.27627 -73.42301 17107 ft 435 kts 15°
2026-05-09 09:09 41.30455 -73.40799 17648 ft 440 kts 15°
2026-05-09 09:10 41.33309 -73.39281 18208 ft 445 kts 15°
2026-05-09 09:10 41.36200 -73.37742 18682 ft 449 kts 15°
2026-05-09 09:10 41.39111 -73.36188 19248 ft 452 kts 15°
2026-05-09 09:10 41.42042 -73.34622 19880 ft 454 kts 15°
2026-05-09 09:11 41.44979 -73.33028 20444 ft 460 kts 17°
2026-05-09 09:11 41.47826 -73.30960 21000 ft 473 kts 28°
2026-05-09 09:11 41.50435 -73.28204 21534 ft 483 kts 35°
2026-05-09 09:11 41.52928 -73.25156 22050 ft 490 kts 38°
2026-05-09 09:12 41.55372 -73.21942 22569 ft 495 kts 39°
2026-05-09 09:12 41.57837 -73.18727 23063 ft 496 kts 35°
2026-05-09 09:12 41.60571 -73.15941 23570 ft 491 kts 25°
2026-05-09 09:12 41.63571 -73.13854 24011 ft 482 kts 13°
2026-05-09 09:13 41.66737 -73.12581 24483 ft 470 kts
2026-05-09 09:13 41.69942 -73.12134 24969 ft 458 kts 351°
2026-05-09 09:13 41.73055 -73.12345 25451 ft 452 kts 346°
2026-05-09 09:13 41.76178 -73.12789 25946 ft 451 kts 343°
2026-05-09 09:14 41.79299 -73.13337 26438 ft 453 kts 342°
2026-05-09 09:14 41.82422 -73.13922 26913 ft 454 kts 342°
2026-05-09 09:14 41.85560 -73.14508 27438 ft 456 kts 342°
2026-05-09 09:14 41.88711 -73.15082 27910 ft 458 kts 343°
2026-05-09 09:15 41.91876 -73.15644 28359 ft 460 kts 343°
2026-05-09 09:15 41.95067 -73.16199 28778 ft 462 kts 343°
2026-05-09 09:15 41.98264 -73.16747 29234 ft 465 kts 343°
2026-05-09 09:15 42.01477 -73.17296 29594 ft 467 kts 343°
2026-05-09 09:16 42.04699 -73.17842 30147 ft 465 kts 342°
2026-05-09 09:16 42.11074 -73.18916 31146 ft 459 kts 342°
2026-05-09 09:16 42.14235 -73.19453 31627 ft 457 kts 342°
2026-05-09 09:17 42.17378 -73.19990 32088 ft 454 kts 342°
2026-05-09 09:17 42.20505 -73.20526 32584 ft 451 kts 342°
2026-05-09 09:17 42.23599 -73.21057 33082 ft 447 kts 342°
2026-05-09 09:17 42.26677 -73.21586 33544 ft 444 kts 342°
2026-05-09 09:18 42.29724 -73.22112 33958 ft 441 kts 342°
2026-05-09 09:18 42.32768 -73.22639 34269 ft 441 kts 342°
2026-05-09 09:18 42.35817 -73.23171 34443 ft 443 kts 342°
2026-05-09 09:18 42.38879 -73.23708 34628 ft 445 kts 342°
2026-05-09 09:19 42.41952 -73.24244 34849 ft 446 kts 342°
2026-05-09 09:19 42.45039 -73.24779 35013 ft 448 kts 342°
2026-05-09 09:19 42.48179 -73.25075 35181 ft 458 kts 349°
2026-05-09 09:19 42.51407 -73.24821 35331 ft 472 kts 357°
2026-05-09 09:20 42.54662 -73.23905 35473 ft 486 kts
2026-05-09 09:20 42.57871 -73.22242 35652 ft 502 kts 16°
2026-05-09 09:20 42.60925 -73.19802 35796 ft 518 kts 27°
2026-05-09 09:20 42.63707 -73.16584 35915 ft 533 kts 38°
2026-05-09 09:21 42.66100 -73.12674 36060 ft 542 kts 47°
2026-05-09 09:21 42.68370 -73.08594 36201 ft 543 kts 46°
2026-05-09 09:21 42.70576 -73.04492 36408 ft 544 kts 47°
2026-05-09 09:21 42.72784 -73.00326 36591 ft 544 kts 48°
2026-05-09 09:22 42.74996 -72.96151 36788 ft 544 kts 48°
2026-05-09 09:22 42.77210 -72.91996 36982 ft 543 kts 48°
2026-05-09 09:22 42.81693 -72.83648 37019 ft 549 kts 48°
2026-05-09 09:23 42.86209 -72.75259 37026 ft 549 kts 48°
2026-05-09 09:23 42.90716 -72.66869 37056 ft 549 kts 48°
2026-05-09 09:24 42.95209 -72.58480 37029 ft 547 kts 48°
2026-05-09 09:24 42.99690 -72.50086 37034 ft 546 kts 48°
2026-05-09 09:25 43.04159 -72.41696 37034 ft 546 kts 48°
2026-05-09 09:25 43.08624 -72.33287 37033 ft 546 kts 49°
2026-05-09 09:26 43.13082 -72.24869 37033 ft 546 kts 49°
2026-05-09 09:26 43.17532 -72.16441 37030 ft 546 kts 49°
2026-05-09 09:27 43.21973 -72.08007 37030 ft 545 kts 49°
2026-05-09 09:27 43.26404 -71.99565 37027 ft 545 kts 49°
2026-05-09 09:28 43.30831 -71.91107 37027 ft 545 kts 49°
2026-05-09 09:28 43.35251 -71.82638 37024 ft 546 kts 49°
2026-05-09 09:29 43.39667 -71.74154 37023 ft 546 kts 49°
2026-05-09 09:29 43.44076 -71.65659 37016 ft 546 kts 49°
2026-05-09 09:30 43.48481 -71.57146 37012 ft 546 kts 49°
2026-05-09 09:30 43.52878 -71.48624 37013 ft 545 kts 50°
2026-05-09 09:31 43.57264 -71.40097 36992 ft 545 kts 50°
2026-05-09 09:32 43.63801 -71.27345 37058 ft 545 kts 50°
2026-05-09 09:32 43.68165 -71.18801 37020 ft 544 kts 50°
2026-05-09 09:33 43.72514 -71.10260 37024 ft 543 kts 50°
2026-05-09 09:33 43.76859 -71.01703 37014 ft 543 kts 50°
2026-05-09 09:34 43.81199 -70.93132 37017 ft 543 kts 50°
2026-05-09 09:34 43.85523 -70.84566 37013 ft 543 kts 51°
2026-05-09 09:36 44.02732 -70.50227 37037 ft 541 kts 51°
2026-05-09 09:37 44.07007 -70.41634 37061 ft 541 kts 51°
2026-05-09 09:37 44.11275 -70.33031 37042 ft 540 kts 51°
2026-05-09 09:38 44.15529 -70.24427 37018 ft 539 kts 51°
2026-05-09 09:38 44.19776 -70.15814 37023 ft 539 kts 52°
2026-05-09 09:39 44.24015 -70.07191 37036 ft 539 kts 52°
2026-05-09 09:39 44.28215 -69.98621 37036 ft 538 kts 52°
2026-05-09 09:40 44.32465 -69.89926 37026 ft 538 kts 52°
2026-05-09 09:40 44.36680 -69.81276 37019 ft 538 kts 52°
2026-05-09 09:41 44.40847 -69.72695 37015 ft 537 kts 52°
2026-05-09 09:41 44.45030 -69.64058 36989 ft 536 kts 52°
2026-05-09 09:42 44.49202 -69.55422 36984 ft 536 kts 52°
2026-05-09 09:42 44.53371 -69.46762 36996 ft 535 kts 52°
2026-05-09 09:43 44.57528 -69.38103 37001 ft 535 kts 53°
2026-05-09 09:43 44.61676 -69.29434 37010 ft 535 kts 53°
2026-05-09 09:44 44.65810 -69.20772 37016 ft 535 kts 53°
2026-05-09 09:44 44.69215 -69.13614 37008 ft 535 kts 53°
2026-05-09 09:45 44.73331 -69.04941 37007 ft 536 kts 53°
2026-05-09 09:45 44.77458 -68.96217 37008 ft 536 kts 53°
2026-05-09 09:46 44.81584 -68.87468 37010 ft 536 kts 53°
2026-05-09 09:46 44.85699 -68.78717 37009 ft 536 kts 53°
2026-05-09 09:47 44.89787 -68.69996 37007 ft 536 kts 53°
2026-05-09 09:47 44.93872 -68.61255 37022 ft 536 kts 53°
2026-05-09 09:48 44.97968 -68.52465 37014 ft 536 kts 53°
2026-05-09 09:48 45.02057 -68.43661 37019 ft 535 kts 53°
2026-05-09 09:49 45.06133 -68.34859 37016 ft 535 kts 53°
2026-05-09 09:49 45.10205 -68.26038 37017 ft 535 kts 54°
2026-05-09 09:50 45.14227 -68.17298 37016 ft 535 kts 54°
2026-05-09 09:50 45.18284 -68.08455 37015 ft 535 kts 54°
2026-05-09 09:51 45.22329 -67.99612 37032 ft 535 kts 54°
2026-05-09 09:51 45.26357 -67.90777 37013 ft 534 kts 54°
2026-05-09 09:52 45.30351 -67.81990 37002 ft 533 kts 54°
2026-05-09 09:52 45.34516 -67.73296 37010 ft 530 kts 47°
2026-05-09 09:53 45.39269 -67.65307 37009 ft 528 kts 46°
2026-05-09 09:53 45.44107 -67.57445 37004 ft 528 kts 45°
2026-05-09 09:54 45.48954 -67.49584 36996 ft 528 kts 46°
2026-05-09 09:54 45.53788 -67.41698 36997 ft 528 kts 46°
2026-05-09 09:55 45.58606 -67.33798 36993 ft 527 kts 46°
2026-05-09 09:55 45.63418 -67.25881 36991 ft 527 kts 46°
2026-05-09 09:56 45.68218 -67.17962 36990 ft 527 kts 46°
2026-05-09 09:56 45.73016 -67.10024 36987 ft 527 kts 46°
2026-05-09 09:57 45.77809 -67.02073 36988 ft 527 kts 46°
2026-05-09 09:57 45.82595 -66.94109 36986 ft 527 kts 46°
2026-05-09 09:58 45.87378 -66.86130 36986 ft 527 kts 47°
2026-05-09 09:58 45.92153 -66.78139 36979 ft 527 kts 47°
2026-05-09 09:59 45.96927 -66.70126 36982 ft 527 kts 47°
2026-05-09 09:59 46.01690 -66.62110 36985 ft 527 kts 47°
2026-05-09 10:00 46.06447 -66.54079 36980 ft 527 kts 47°
2026-05-09 10:00 46.11198 -66.46035 36981 ft 527 kts 47°
2026-05-09 10:01 46.15912 -66.38033 36986 ft 527 kts 47°
2026-05-09 10:01 46.20653 -66.29959 36968 ft 527 kts 47°
2026-05-09 10:02 46.25383 -66.21881 36982 ft 527 kts 47°
2026-05-09 10:02 46.30110 -66.13784 36964 ft 527 kts 47°
2026-05-09 10:03 46.34832 -66.05674 36971 ft 527 kts 48°
2026-05-09 10:03 46.39550 -65.97544 36973 ft 527 kts 48°
2026-05-09 10:04 46.44259 -65.89406 36974 ft 527 kts 48°
2026-05-09 10:04 46.48968 -65.81246 36983 ft 527 kts 48°
2026-05-09 10:05 46.53664 -65.73083 36960 ft 527 kts 48°
2026-05-09 10:05 46.58361 -65.64894 36981 ft 527 kts 48°
2026-05-09 10:06 46.63049 -65.56696 36956 ft 527 kts 48°
2026-05-09 10:06 46.67728 -65.48489 36965 ft 527 kts 49°
2026-05-09 10:07 46.72404 -65.40264 36965 ft 527 kts 49°
2026-05-09 10:07 46.77073 -65.32024 36966 ft 527 kts 49°
2026-05-09 10:08 46.81738 -65.23769 36965 ft 527 kts 49°
2026-05-09 10:08 46.86392 -65.15508 36959 ft 527 kts 50°
2026-05-09 10:09 46.91011 -65.07285 36957 ft 527 kts 50°
2026-05-09 10:09 46.95650 -64.99001 36961 ft 527 kts 50°
2026-05-09 10:10 47.00286 -64.90696 36957 ft 527 kts 50°
2026-05-09 10:10 47.04917 -64.82377 36955 ft 527 kts 50°
2026-05-09 10:11 47.09542 -64.74042 36957 ft 527 kts 50°
2026-05-09 10:11 47.14161 -64.65693 36953 ft 527 kts 50°
2026-05-09 10:12 47.18775 -64.57327 36955 ft 527 kts 50°
2026-05-09 10:12 47.23381 -64.48951 36955 ft 527 kts 50°
2026-05-09 10:13 47.27980 -64.40563 36955 ft 527 kts 51°
2026-05-09 10:13 47.32575 -64.32155 36949 ft 527 kts 51°
2026-05-09 10:14 47.37163 -64.23732 36942 ft 526 kts 51°
2026-05-09 10:14 47.41715 -64.15351 36943 ft 527 kts 51°
2026-05-09 10:15 47.46288 -64.06907 36940 ft 526 kts 51°
2026-05-09 10:15 47.50854 -63.98447 36939 ft 526 kts 51°
2026-05-09 10:16 47.55414 -63.89974 36945 ft 526 kts 51°
2026-05-09 10:16 47.59968 -63.81484 36946 ft 526 kts 51°
2026-05-09 10:17 47.64517 -63.72979 36939 ft 526 kts 52°
2026-05-09 10:17 47.69057 -63.64462 36939 ft 526 kts 52°
2026-05-09 10:18 47.73590 -63.55932 36941 ft 526 kts 52°
2026-05-09 10:18 47.78121 -63.47381 36941 ft 526 kts 52°
2026-05-09 10:19 47.82645 -63.38814 36944 ft 527 kts 52°
2026-05-09 10:19 47.87162 -63.30234 36944 ft 527 kts 52°
2026-05-09 10:20 47.91676 -63.21631 36944 ft 527 kts 52°
2026-05-09 10:20 47.96180 -63.13022 36944 ft 527 kts 52°
2026-05-09 10:21 48.00679 -63.04395 36947 ft 527 kts 52°
2026-05-09 10:21 48.05172 -62.95751 36947 ft 527 kts 52°
2026-05-09 10:22 48.09662 -62.87087 36941 ft 527 kts 52°
2026-05-09 10:22 48.14143 -62.78413 36938 ft 527 kts 53°
2026-05-09 10:23 48.18621 -62.69714 36940 ft 527 kts 53°
2026-05-09 10:23 48.23056 -62.61072 36943 ft 527 kts 53°
2026-05-09 10:24 48.27520 -62.52344 36933 ft 527 kts 53°
2026-05-09 10:24 48.31978 -62.43602 36933 ft 527 kts 53°
2026-05-09 10:25 48.36430 -62.34843 36932 ft 527 kts 53°
2026-05-09 10:25 48.40875 -62.26069 36928 ft 527 kts 53°
2026-05-09 10:26 48.45316 -62.17274 36923 ft 528 kts 53°
2026-05-09 10:26 48.49756 -62.08453 36925 ft 528 kts 54°
2026-05-09 10:27 48.54192 -61.99610 36925 ft 529 kts 54°
2026-05-09 10:27 48.58625 -61.90747 36919 ft 529 kts 54°
2026-05-09 10:28 48.63049 -61.81870 36923 ft 529 kts 54°
2026-05-09 10:28 48.67469 -61.72972 36916 ft 529 kts 54°
2026-05-09 10:29 48.71881 -61.64061 36913 ft 529 kts 54°
2026-05-09 10:29 48.76286 -61.55135 36914 ft 529 kts 54°
2026-05-09 10:30 48.80685 -61.46191 36910 ft 529 kts 54°
2026-05-09 10:30 48.85078 -61.37228 36906 ft 529 kts 54°
2026-05-09 10:31 48.89468 -61.28245 36904 ft 529 kts 55°
2026-05-09 10:31 48.93842 -61.19262 36903 ft 530 kts 55°
2026-05-09 10:32 48.98219 -61.10241 36895 ft 530 kts 55°
2026-05-09 10:32 49.02593 -61.01198 36892 ft 530 kts 56°
2026-05-09 10:33 49.06224 -60.93668 36891 ft 531 kts 56°
2026-05-09 10:33 49.10589 -60.84588 36908 ft 531 kts 56°
2026-05-09 10:34 49.15655 -60.74010 36888 ft 531 kts 56°
2026-05-09 10:34 49.21474 -60.61809 36880 ft 531 kts 56°
2026-05-09 10:35 49.25815 -60.52669 36897 ft 531 kts 56°
2026-05-09 10:35 49.30153 -60.43503 36876 ft 531 kts 56°
2026-05-09 10:36 49.34482 -60.34329 36890 ft 531 kts 57°
2026-05-09 10:36 49.38806 -60.25132 36870 ft 531 kts 57°
2026-05-09 10:37 49.43121 -60.15920 36881 ft 532 kts 57°
2026-05-09 10:37 49.47402 -60.06751 36862 ft 531 kts 57°
2026-05-09 10:38 49.51706 -59.97501 36874 ft 532 kts 57°
2026-05-09 10:38 49.56008 -59.88223 36872 ft 532 kts 57°
2026-05-09 10:39 49.60302 -59.78930 36871 ft 532 kts 57°
2026-05-09 10:39 49.64586 -59.69625 36870 ft 532 kts 57°
2026-05-09 10:40 49.68866 -59.60298 36865 ft 532 kts 58°
2026-05-09 10:40 49.73141 -59.50948 36865 ft 533 kts 58°
2026-05-09 10:41 49.77406 -59.41586 36868 ft 533 kts 58°
2026-05-09 10:41 49.81665 -59.32205 36860 ft 533 kts 58°
2026-05-09 10:42 49.85917 -59.22808 36865 ft 533 kts 58°
2026-05-09 10:42 49.90162 -59.13390 36866 ft 533 kts 58°
2026-05-09 10:43 49.94399 -59.03959 36864 ft 533 kts 58°
2026-05-09 10:43 49.98600 -58.94574 36865 ft 533 kts 59°
2026-05-09 10:44 50.02820 -58.85112 36864 ft 533 kts 59°
2026-05-09 10:44 50.07042 -58.75611 36867 ft 534 kts 59°
2026-05-09 10:46 50.17566 -58.51783 36878 ft 534 kts 59°
2026-05-09 10:46 50.21763 -58.42217 36874 ft 534 kts 59°
2026-05-09 10:47 50.25951 -58.32640 36874 ft 534 kts 59°
2026-05-09 10:47 50.30132 -58.23043 36872 ft 534 kts 60°
2026-05-09 10:48 50.34301 -58.13438 36882 ft 533 kts 60°
2026-05-09 10:48 50.38459 -58.03825 36881 ft 533 kts 60°
2026-05-09 10:49 50.42583 -57.94252 36881 ft 533 kts 60°
2026-05-09 10:49 50.46725 -57.84607 36879 ft 533 kts 60°
2026-05-09 10:50 50.50856 -57.74949 36882 ft 533 kts 60°
2026-05-09 10:50 50.54980 -57.65271 36875 ft 533 kts 61°
2026-05-09 10:51 50.59101 -57.55564 36879 ft 534 kts 61°
2026-05-09 10:51 50.63218 -57.45834 36871 ft 534 kts 62°
2026-05-09 10:52 50.67324 -57.36094 36867 ft 533 kts 62°
2026-05-09 10:52 50.71421 -57.26335 36867 ft 533 kts 62°
2026-05-09 10:53 50.75509 -57.16563 36842 ft 533 kts 62°
2026-05-09 10:53 50.79588 -57.06776 36856 ft 533 kts 62°
2026-05-09 10:54 50.83657 -56.96975 36852 ft 533 kts 62°
2026-05-09 10:54 50.87715 -56.87163 36851 ft 533 kts 62°
2026-05-09 10:55 50.91768 -56.77331 36845 ft 533 kts 63°
2026-05-09 10:55 50.95811 -56.67481 36844 ft 533 kts 63°
2026-05-09 10:56 50.99849 -56.57605 36842 ft 533 kts 63°
2026-05-09 10:56 51.03880 -56.47712 36830 ft 533 kts 63°
2026-05-09 10:57 51.07901 -56.37804 37019 ft 533 kts 64°
2026-05-09 10:57 51.09902 -56.32863 37317 ft 530 kts 64°
2026-05-09 10:57 51.11865 -56.28008 37589 ft 527 kts 63°
2026-05-09 10:57 51.13844 -56.23102 37799 ft 527 kts 63°
2026-05-09 10:58 51.15819 -56.18191 37952 ft 526 kts 63°
2026-05-09 10:58 51.17790 -56.13282 38100 ft 526 kts 63°
2026-05-09 10:58 51.19762 -56.08359 38241 ft 526 kts 63°
2026-05-09 10:58 51.21728 -56.03445 38355 ft 526 kts 64°
2026-05-09 10:59 51.23694 -55.98521 38455 ft 527 kts 64°
2026-05-09 10:59 51.25660 -55.93588 38564 ft 526 kts 64°
2026-05-09 10:59 51.27620 -55.88663 38697 ft 526 kts 64°
2026-05-09 11:00 51.31539 -55.78781 38823 ft 527 kts 64°
2026-05-09 11:00 51.35471 -55.68825 38822 ft 532 kts 64°
2026-05-09 11:01 51.39420 -55.58795 38821 ft 533 kts 64°
2026-05-09 11:01 51.43363 -55.48745 38827 ft 532 kts 64°
2026-05-09 11:02 51.47292 -55.38689 38826 ft 532 kts 64°
2026-05-09 11:02 51.51209 -55.28622 38827 ft 532 kts 64°
2026-05-09 11:03 51.55121 -55.18527 38827 ft 533 kts 65°
2026-05-09 11:03 51.59032 -55.08394 38827 ft 535 kts 65°
2026-05-09 11:04 51.62949 -54.98205 38826 ft 535 kts 65°
2026-05-09 11:04 51.66851 -54.88018 38821 ft 535 kts 65°
2026-05-09 11:05 51.70749 -54.77802 38812 ft 535 kts 66°
2026-05-09 11:05 51.74640 -54.67556 38812 ft 536 kts 66°
2026-05-09 11:06 51.78497 -54.57364 38798 ft 536 kts 66°
2026-05-09 11:06 51.81915 -54.46801 38771 ft 528 kts 72°
2026-05-09 11:07 51.85062 -54.36071 38791 ft 528 kts 73°
2026-05-09 11:07 51.88159 -54.25292 38783 ft 528 kts 73°
2026-05-09 11:08 51.91248 -54.14503 38773 ft 528 kts 73°
2026-05-09 11:08 51.94332 -54.03710 38766 ft 528 kts 73°
2026-05-09 11:09 51.97410 -53.92903 38757 ft 529 kts 74°
2026-05-09 11:09 52.00494 -53.82010 38753 ft 533 kts 74°
2026-05-09 11:10 52.03585 -53.71062 38738 ft 533 kts 74°
2026-05-09 11:10 52.06663 -53.60115 38739 ft 533 kts 74°
2026-05-09 11:11 52.09729 -53.49152 38730 ft 533 kts 75°
2026-05-09 11:11 52.12789 -53.38147 38733 ft 534 kts 75°
2026-05-09 11:12 52.15844 -53.27116 38716 ft 534 kts 75°
2026-05-09 11:12 52.18889 -53.16073 38708 ft 534 kts 75°
2026-05-09 11:13 52.21921 -53.05021 38691 ft 534 kts 75°
2026-05-09 11:13 52.24947 -52.93928 38707 ft 537 kts 75°
2026-05-09 11:14 52.27974 -52.82781 38698 ft 539 kts 75°
2026-05-09 11:14 52.31009 -52.71549 38703 ft 541 kts 75°
2026-05-09 11:15 52.34039 -52.60302 38674 ft 540 kts 74°
2026-05-09 11:15 52.37056 -52.49041 38691 ft 541 kts 74°
2026-05-09 11:16 52.40061 -52.37759 38687 ft 541 kts 75°
2026-05-09 11:16 52.43055 -52.26464 38686 ft 541 kts 75°
2026-05-09 11:17 52.46041 -52.15147 38682 ft 541 kts 75°
2026-05-09 11:17 52.49014 -52.03819 38680 ft 540 kts 75°
2026-05-09 11:18 52.51974 -51.92485 38684 ft 540 kts 75°
2026-05-09 11:18 52.54923 -51.81138 38683 ft 540 kts 75°
2026-05-09 11:19 52.57863 -51.69767 38676 ft 540 kts 75°
2026-05-09 11:19 52.60786 -51.58404 38679 ft 539 kts 75°
2026-05-09 11:20 52.63696 -51.47039 38684 ft 538 kts 75°
2026-05-09 11:20 52.66570 -51.35754 38683 ft 538 kts 75°
2026-05-09 11:21 52.69451 -51.24382 38683 ft 538 kts 75°
2026-05-09 11:21 52.72320 -51.12998 38679 ft 537 kts 75°
2026-05-09 11:22 52.75172 -51.01631 38691 ft 535 kts 75°
2026-05-09 11:22 52.78006 -50.90274 38692 ft 535 kts 75°
2026-05-09 11:23 52.80371 -50.80749 38694 ft 535 kts 75°
2026-05-09 11:23 52.83182 -50.69372 38648 ft 534 kts 75°
2026-05-09 11:24 52.85967 -50.58062 38691 ft 527 kts 75°
2026-05-09 11:24 52.88692 -50.46933 38705 ft 525 kts 76°
2026-05-09 11:25 52.91416 -50.35729 38709 ft 524 kts 76°
2026-05-09 11:25 52.94132 -50.24505 38714 ft 524 kts 76°
2026-05-09 11:26 52.96831 -50.13301 38707 ft 522 kts 76°
2026-05-09 11:26 52.99504 -50.02162 38717 ft 518 kts 76°
2026-05-09 11:27 53.02213 -49.91066 38720 ft 519 kts 75°
2026-05-09 11:27 53.05017 -49.80000 38726 ft 520 kts 75°
2026-05-09 11:28 53.07814 -49.68926 38704 ft 519 kts 75°
2026-05-09 11:28 53.10578 -49.57862 38688 ft 516 kts 75°
2026-05-09 11:29 53.13316 -49.46801 38734 ft 516 kts 75°
2026-05-09 11:29 53.16037 -49.35743 38735 ft 516 kts 76°
2026-05-09 11:30 53.18750 -49.24664 38750 ft 516 kts 76°
2026-05-09 11:30 53.21451 -49.13591 38749 ft 515 kts 76°
2026-05-09 11:31 53.24135 -49.02528 38755 ft 514 kts 76°
2026-05-09 11:31 53.26807 -48.91456 38760 ft 514 kts 76°
2026-05-09 11:32 53.29465 -48.80385 38763 ft 513 kts 76°
2026-05-09 11:32 53.32097 -48.69369 38755 ft 513 kts 76°
2026-05-09 11:33 53.34729 -48.58299 38775 ft 512 kts 76°
2026-05-09 11:33 53.38655 -48.41676 38778 ft 512 kts 76°
2026-05-09 11:34 53.41257 -48.30584 38791 ft 511 kts 76°
2026-05-09 11:34 53.43846 -48.19493 38784 ft 510 kts 76°
2026-05-09 11:35 53.46424 -48.08390 38799 ft 511 kts 76°
2026-05-09 11:35 53.48997 -47.97254 38798 ft 511 kts 76°
2026-05-09 11:36 53.51558 -47.86114 38817 ft 511 kts 77°
2026-05-09 11:36 53.54106 -47.74967 38818 ft 511 kts 77°
2026-05-09 11:37 53.56647 -47.63789 38828 ft 512 kts 76°
2026-05-09 11:37 53.59184 -47.52569 38836 ft 513 kts 77°
2026-05-09 11:38 53.61711 -47.41344 38835 ft 513 kts 77°
2026-05-09 11:38 53.64227 -47.30106 38859 ft 512 kts 77°
2026-05-09 11:39 53.66730 -47.18860 38860 ft 512 kts 77°
2026-05-09 11:40 53.70448 -47.02041 38866 ft 512 kts 77°
2026-05-09 11:40 53.72923 -46.90771 38864 ft 512 kts 77°
2026-05-09 11:41 53.75388 -46.79486 38879 ft 512 kts 77°
2026-05-09 11:41 53.77840 -46.68194 38872 ft 512 kts 77°
2026-05-09 11:42 53.80281 -46.56893 38883 ft 511 kts 77°
2026-05-09 11:42 53.82711 -46.45583 38894 ft 511 kts 77°
2026-05-09 11:43 53.85127 -46.34273 38905 ft 511 kts 77°
2026-05-09 11:43 53.87533 -46.22949 38917 ft 511 kts 77°
2026-05-09 11:44 53.89930 -46.11602 38912 ft 511 kts 77°
2026-05-09 11:44 53.92317 -46.00239 38927 ft 512 kts 77°
2026-05-09 11:45 53.94694 -45.88860 38913 ft 512 kts 77°
2026-05-09 11:45 53.97059 -45.77470 38949 ft 511 kts 77°
2026-05-09 11:46 53.99414 -45.66069 38944 ft 511 kts 77°
2026-05-09 11:46 54.01759 -45.54652 38961 ft 512 kts 77°
2026-05-09 11:47 54.04095 -45.43210 38969 ft 512 kts 77°
2026-05-09 11:47 54.06419 -45.31765 38989 ft 512 kts 77°
2026-05-09 11:48 54.08716 -45.20385 38997 ft 511 kts 77°
2026-05-09 11:48 54.11031 -45.08845 38999 ft 512 kts 77°
2026-05-09 11:49 54.13306 -44.97439 39009 ft 512 kts 77°
2026-05-09 11:49 54.15587 -44.85939 39023 ft 512 kts 77°
2026-05-09 11:50 54.17856 -44.74426 39030 ft 512 kts 77°
2026-05-09 11:50 54.20113 -44.62913 39018 ft 511 kts 77°
2026-05-09 11:51 54.22361 -44.51367 39037 ft 514 kts 77°
2026-05-09 11:51 54.24607 -44.39760 39057 ft 514 kts 77°
2026-05-09 11:52 54.26844 -44.28147 39066 ft 514 kts 77°
2026-05-09 11:52 54.29066 -44.16537 39078 ft 514 kts 77°
2026-05-09 11:53 54.31278 -44.04900 39064 ft 513 kts 77°
2026-05-09 11:53 54.33475 -43.93276 39090 ft 512 kts 77°
2026-05-09 11:54 54.35651 -43.81692 39099 ft 512 kts 77°
2026-05-09 11:54 54.37820 -43.70067 39101 ft 512 kts 77°
2026-05-09 11:55 54.39978 -43.58432 39104 ft 512 kts 78°
2026-05-09 11:56 54.46355 -43.23618 39141 ft 510 kts 77°
2026-05-09 11:57 54.48462 -43.11968 39151 ft 510 kts 77°
2026-05-09 11:57 54.50556 -43.00315 39141 ft 510 kts 77°
2026-05-09 11:58 54.52639 -42.88648 39165 ft 510 kts 77°
2026-05-09 11:58 54.54712 -42.76972 39175 ft 510 kts 77°
2026-05-09 11:59 54.56774 -42.65279 39183 ft 510 kts 77°
2026-05-09 11:59 54.58823 -42.53585 39184 ft 510 kts 77°
2026-05-09 12:00 54.60860 -42.41880 39193 ft 510 kts 77°
2026-05-09 12:00 54.62888 -42.30153 39198 ft 509 kts 77°
2026-05-09 12:01 54.64900 -42.18438 39218 ft 509 kts 77°
2026-05-09 12:01 54.66900 -42.06714 39216 ft 509 kts 77°
2026-05-09 12:02 54.68889 -41.94978 39210 ft 508 kts 77°
2026-05-09 12:02 54.70865 -41.83244 39225 ft 508 kts 77°
2026-05-09 12:03 54.72825 -41.71523 39235 ft 507 kts 77°
2026-05-09 12:03 54.74616 -41.60744 39246 ft 507 kts 77°
2026-05-09 12:04 54.76554 -41.48999 39246 ft 507 kts 77°
2026-05-09 12:04 54.78481 -41.37243 39249 ft 507 kts 77°
2026-05-09 12:05 54.80397 -41.25476 39258 ft 507 kts 77°
2026-05-09 12:05 54.82303 -41.13692 39276 ft 507 kts 77°
2026-05-09 12:06 54.84197 -41.01901 39276 ft 507 kts 78°
2026-05-09 12:06 54.86080 -40.90093 39281 ft 508 kts 78°
2026-05-09 12:07 54.87950 -40.78280 39279 ft 507 kts 77°
2026-05-09 12:07 54.89806 -40.66475 39291 ft 506 kts 78°
2026-05-09 12:08 54.91647 -40.54684 39299 ft 505 kts 77°
2026-05-09 12:08 54.93472 -40.42907 39309 ft 505 kts 78°
2026-05-09 12:09 54.95288 -40.31114 39308 ft 504 kts 78°
2026-05-09 12:09 54.97089 -40.19323 39319 ft 505 kts 77°
2026-05-09 12:10 55.00659 -39.95679 39330 ft 505 kts 78°
2026-05-09 12:11 55.02363 -39.83815 39330 ft 504 kts 78°
2026-05-09 12:11 55.04031 -39.71946 39335 ft 504 kts 79°
2026-05-09 12:12 55.05698 -39.60056 39335 ft 505 kts 78°
2026-05-09 12:12 55.07363 -39.48156 39357 ft 505 kts 78°
2026-05-09 12:13 55.09018 -39.36245 39361 ft 505 kts 78°
2026-05-09 12:13 55.10662 -39.24322 39361 ft 505 kts 78°
2026-05-09 12:14 55.12292 -39.12394 39366 ft 505 kts 78°
2026-05-09 12:14 55.13911 -39.00454 39370 ft 505 kts 78°
2026-05-09 12:15 55.15517 -38.88517 39387 ft 505 kts 79°
2026-05-09 12:15 55.17113 -38.76554 39385 ft 505 kts 79°
2026-05-09 12:16 55.18697 -38.64586 39393 ft 504 kts 79°
2026-05-09 12:16 55.20268 -38.52623 39391 ft 504 kts 79°
2026-05-09 12:17 55.21828 -38.40648 39411 ft 504 kts 78°
2026-05-09 12:17 55.23373 -38.28677 39420 ft 504 kts 79°
2026-05-09 12:18 55.24897 -38.16764 39417 ft 505 kts 79°
2026-05-09 12:18 55.26422 -38.04765 39416 ft 505 kts 79°
2026-05-09 12:19 55.27935 -37.92750 39424 ft 505 kts 78°
2026-05-09 12:19 55.29436 -37.80724 39422 ft 504 kts 78°
2026-05-09 12:20 55.30919 -37.68727 39430 ft 502 kts 78°
2026-05-09 12:20 55.32386 -37.56761 39433 ft 501 kts 78°
2026-05-09 12:21 55.33844 -37.44780 39447 ft 501 kts 78°
2026-05-09 12:21 55.35287 -37.32801 39454 ft 500 kts 78°
2026-05-09 12:22 55.36718 -37.20816 39459 ft 501 kts 78°
2026-05-09 12:22 55.38141 -37.08810 39474 ft 502 kts 78°
2026-05-09 12:23 55.39551 -36.96787 39476 ft 501 kts 78°
2026-05-09 12:23 55.40949 -36.84765 39479 ft 502 kts 78°
2026-05-09 12:24 55.42336 -36.72726 39488 ft 502 kts 78°
2026-05-09 12:24 55.43709 -36.60693 39488 ft 501 kts 78°
2026-05-09 12:25 55.45055 -36.48774 39501 ft 501 kts 78°
2026-05-09 12:25 55.46404 -36.36737 39487 ft 500 kts 78°
2026-05-09 12:26 55.47741 -36.24704 39509 ft 500 kts 78°
2026-05-09 12:26 55.49066 -36.12650 39494 ft 501 kts 78°
2026-05-09 12:27 55.50380 -36.00580 39502 ft 501 kts 78°
2026-05-09 12:27 55.51681 -35.88507 39506 ft 500 kts 78°
2026-05-09 12:28 55.52970 -35.76435 39519 ft 500 kts 78°
2026-05-09 12:28 55.54246 -35.64354 39532 ft 500 kts 78°
2026-05-09 12:29 55.55507 -35.52306 39527 ft 498 kts 78°
2026-05-09 12:29 55.56757 -35.40238 39532 ft 499 kts 78°
2026-05-09 12:30 55.57996 -35.28163 39533 ft 499 kts 78°
2026-05-09 12:30 55.59824 -35.10119 39539 ft 499 kts 78°
2026-05-09 12:31 55.61614 -34.92149 39555 ft 492 kts 78°
2026-05-09 12:32 55.62785 -34.80247 39556 ft 491 kts 78°
2026-05-09 12:32 55.63944 -34.68345 39557 ft 491 kts 78°
2026-05-09 12:33 55.65091 -34.56437 39565 ft 491 kts 78°
2026-05-09 12:33 55.66229 -34.44514 39579 ft 491 kts 78°
2026-05-09 12:34 55.67350 -34.32619 39573 ft 488 kts 78°
2026-05-09 12:34 55.68270 -34.22765 39573 ft 488 kts 78°
2026-05-09 12:35 55.69366 -34.10902 39573 ft 488 kts 78°
2026-05-09 12:35 55.70452 -33.99033 39587 ft 488 kts 78°
2026-05-09 12:36 55.71526 -33.87145 39605 ft 488 kts 78°
2026-05-09 12:36 55.72587 -33.75278 39595 ft 487 kts 78°
2026-05-09 12:37 55.73633 -33.63432 39589 ft 485 kts 78°
2026-05-09 12:37 55.74664 -33.51628 39589 ft 484 kts 78°
2026-05-09 12:38 55.75684 -33.39822 39601 ft 484 kts 78°
2026-05-09 12:38 55.76694 -33.28006 39604 ft 484 kts 78°
2026-05-09 12:39 55.77689 -33.16198 39603 ft 483 kts 78°
2026-05-09 12:39 55.78672 -33.04402 39604 ft 482 kts 78°
2026-05-09 12:40 55.79644 -32.92608 39608 ft 482 kts 78°
2026-05-09 12:40 55.80605 -32.80810 39614 ft 483 kts 78°
2026-05-09 12:41 55.81555 -32.68988 39618 ft 483 kts 78°
2026-05-09 12:41 55.82491 -32.57182 39615 ft 481 kts 78°
2026-05-09 12:42 55.83413 -32.45415 39621 ft 480 kts 78°
2026-05-09 12:42 55.84324 -32.33646 39621 ft 480 kts 78°
2026-05-09 12:43 55.85220 -32.21912 39624 ft 476 kts 78°
2026-05-09 12:43 55.86098 -32.10255 39627 ft 475 kts 78°
2026-05-09 12:44 55.86966 -31.98614 39630 ft 474 kts 78°
2026-05-09 12:44 55.87820 -31.86992 39632 ft 473 kts 78°
2026-05-09 12:45 55.88663 -31.75376 39634 ft 473 kts 78°
2026-05-09 12:45 55.89494 -31.63749 39642 ft 473 kts 78°
2026-05-09 12:46 55.90316 -31.52108 39640 ft 473 kts 78°
2026-05-09 12:46 55.91124 -31.40472 39642 ft 473 kts 78°
2026-05-09 12:47 55.91922 -31.28842 39640 ft 472 kts 78°
2026-05-09 12:47 55.92709 -31.17208 39651 ft 473 kts 78°
2026-05-09 12:48 55.93486 -31.05569 39650 ft 473 kts 78°
2026-05-09 12:48 55.94250 -30.93930 39650 ft 473 kts 78°
2026-05-09 12:49 55.94998 -30.82366 39660 ft 471 kts 78°
2026-05-09 12:49 55.95733 -30.70815 39650 ft 468 kts 78°
2026-05-09 12:50 55.96457 -30.59292 39658 ft 467 kts 78°
2026-05-09 12:50 55.97172 -30.47755 39655 ft 467 kts 78°
2026-05-09 12:51 55.97875 -30.36218 39654 ft 467 kts 78°
2026-05-09 12:51 55.98567 -30.24679 39657 ft 467 kts 78°
2026-05-09 12:52 55.99248 -30.13130 39656 ft 468 kts 78°
2026-05-09 12:52 55.99919 -30.01579 39662 ft 468 kts 78°
2026-05-09 12:53 56.00497 -29.89993 39659 ft 469 kts 80°
2026-05-09 12:53 56.00916 -29.78345 39660 ft 470 kts 81°
2026-05-09 12:54 56.01324 -29.66691 39663 ft 470 kts 81°
2026-05-09 12:54 56.01745 -29.55054 39662 ft 469 kts 80°
2026-05-09 12:55 56.02168 -29.43426 39660 ft 467 kts 79°
2026-05-09 12:55 56.02579 -29.31860 39662 ft 466 kts 80°
2026-05-09 12:56 56.02980 -29.20297 39672 ft 466 kts 80°
2026-05-09 12:56 56.03370 -29.08739 39674 ft 466 kts 80°
2026-05-09 12:57 56.03747 -28.97168 39684 ft 466 kts 79°
2026-05-09 12:57 56.04114 -28.85609 39667 ft 466 kts 79°
2026-05-09 12:58 56.04469 -28.74044 39666 ft 466 kts 80°
2026-05-09 12:58 56.04814 -28.62480 39666 ft 466 kts 80°
2026-05-09 12:59 56.05148 -28.50915 39666 ft 466 kts 80°
2026-05-09 12:59 56.05472 -28.39337 39667 ft 466 kts 80°
2026-05-09 13:00 56.05784 -28.27767 39672 ft 465 kts 79°
2026-05-09 13:00 56.06086 -28.16203 39671 ft 465 kts 80°
2026-05-09 13:01 56.06373 -28.04667 39671 ft 462 kts 80°
2026-05-09 13:01 56.06649 -27.93193 39670 ft 462 kts 80°
2026-05-09 13:02 56.06916 -27.81778 39673 ft 462 kts 80°
2026-05-09 13:02 56.07174 -27.70302 39675 ft 462 kts 79°
2026-05-09 13:03 56.07420 -27.58819 39670 ft 462 kts 80°
2026-05-09 13:03 56.07655 -27.47326 39668 ft 462 kts 80°
2026-05-09 13:04 56.07879 -27.35843 39671 ft 462 kts 80°
2026-05-09 13:04 56.08092 -27.24343 39669 ft 462 kts 80°
2026-05-09 13:05 56.08296 -27.12851 39691 ft 462 kts 80°
2026-05-09 13:05 56.08488 -27.01335 39671 ft 463 kts 80°
2026-05-09 13:06 56.08671 -26.89806 39669 ft 463 kts 80°
2026-05-09 13:06 56.08842 -26.78268 39679 ft 463 kts 80°
2026-05-09 13:07 56.09002 -26.66744 39668 ft 463 kts 80°
2026-05-09 13:07 56.09152 -26.55224 39670 ft 463 kts 80°
2026-05-09 13:08 56.09292 -26.43707 39674 ft 464 kts 80°
2026-05-09 13:08 56.09422 -26.32149 39669 ft 464 kts 80°
2026-05-09 13:09 56.09540 -26.20579 39668 ft 465 kts 80°
2026-05-09 13:09 56.09646 -26.09004 39670 ft 465 kts 80°
2026-05-09 13:10 56.09743 -25.97427 39669 ft 465 kts 80°
2026-05-09 13:10 56.09828 -25.85842 39688 ft 465 kts 80°
2026-05-09 13:11 56.09903 -25.74265 39668 ft 465 kts 80°
2026-05-09 13:11 56.09967 -25.62676 39665 ft 465 kts 80°
2026-05-09 13:12 56.10020 -25.51091 39660 ft 465 kts 80°
2026-05-09 13:12 56.10063 -25.39572 39668 ft 465 kts 80°
2026-05-09 13:13 56.10095 -25.27903 39659 ft 466 kts 81°
2026-05-09 13:13 56.10115 -25.16307 39661 ft 465 kts 80°
2026-05-09 13:14 56.10124 -25.04719 39662 ft 465 kts 81°
2026-05-09 13:16 56.10056 -24.58418 39664 ft 465 kts 81°
2026-05-09 13:16 56.10010 -24.46843 39656 ft 464 kts 81°
2026-05-09 13:17 56.09955 -24.35198 39656 ft 464 kts 81°
2026-05-09 13:17 56.09890 -24.23714 39656 ft 464 kts 81°
2026-05-09 13:18 56.09813 -24.12147 39671 ft 465 kts 81°
2026-05-09 13:18 56.09739 -24.02478 39656 ft 461 kts 81°
2026-05-09 13:19 56.09641 -23.91012 39655 ft 460 kts 81°
2026-05-09 13:19 56.09537 -23.79553 39656 ft 460 kts 81°
2026-05-09 13:20 56.09402 -23.66224 39655 ft 461 kts 81°
2026-05-09 13:20 56.09295 -23.56611 39655 ft 461 kts 82°
2026-05-09 13:21 56.09156 -23.45143 39655 ft 461 kts 82°
2026-05-09 13:21 56.09007 -23.33668 39661 ft 460 kts 82°
2026-05-09 13:22 56.08848 -23.22216 39654 ft 460 kts 82°
2026-05-09 13:22 56.08678 -23.10774 39650 ft 460 kts 82°
2026-05-09 13:23 56.08209 -22.82162 39645 ft 460 kts 82°
2026-05-09 13:24 56.08002 -22.70800 39651 ft 458 kts 82°
2026-05-09 13:24 56.07783 -22.59419 39646 ft 457 kts 82°
2026-05-09 13:25 56.07558 -22.48054 39646 ft 457 kts 82°
2026-05-09 13:26 56.07200 -22.31006 39637 ft 457 kts 83°
2026-05-09 13:26 56.06948 -22.19647 39640 ft 457 kts 83°
2026-05-09 13:27 56.06685 -22.08279 39652 ft 457 kts 83°
2026-05-09 13:27 56.06412 -21.96895 39639 ft 458 kts 83°
2026-05-09 13:28 56.06127 -21.85504 39635 ft 458 kts 83°
2026-05-09 13:28 56.05831 -21.74114 39634 ft 458 kts 83°
2026-05-09 13:29 56.05525 -21.62713 39634 ft 459 kts 83°
2026-05-09 13:29 56.05209 -21.51324 39632 ft 459 kts 83°
2026-05-09 13:30 56.04883 -21.39912 39637 ft 460 kts 84°
2026-05-09 13:30 56.04544 -21.28475 39629 ft 460 kts 84°
2026-05-09 13:31 56.04194 -21.17045 39629 ft 460 kts 84°
2026-05-09 13:31 56.03834 -21.05616 39626 ft 460 kts 84°
2026-05-09 13:32 56.03464 -20.94189 39627 ft 461 kts 84°
2026-05-09 13:32 56.02889 -20.77013 39619 ft 463 kts 84°
2026-05-09 13:33 56.02490 -20.65513 39626 ft 464 kts 85°
2026-05-09 13:33 56.02078 -20.54002 39625 ft 464 kts 85°
2026-05-09 13:34 56.01655 -20.42486 39612 ft 464 kts 85°
2026-05-09 13:34 56.01223 -20.30983 39621 ft 464 kts 85°
2026-05-09 13:35 56.00780 -20.19465 39624 ft 465 kts 85°
2026-05-09 13:35 56.00327 -20.07907 39622 ft 467 kts 86°
2026-05-09 13:36 55.99299 -19.96309 39617 ft 480 kts 97°
2026-05-09 13:36 55.97407 -19.84824 39603 ft 484 kts 99°
2026-05-09 13:37 55.95354 -19.73384 39605 ft 484 kts 99°
2026-05-09 13:37 55.93283 -19.61942 39605 ft 484 kts 99°
2026-05-09 13:38 55.91223 -19.50510 39613 ft 485 kts 100°
2026-05-09 13:38 55.89154 -19.39036 39599 ft 487 kts 100°
2026-05-09 13:39 55.87074 -19.27568 39602 ft 487 kts 100°
2026-05-09 13:39 55.84982 -19.16107 39594 ft 487 kts 101°
2026-05-09 13:40 55.82879 -19.04662 39596 ft 487 kts 101°
2026-05-09 13:40 55.80764 -18.93223 39589 ft 487 kts 101°
2026-05-09 13:41 55.78637 -18.81785 39592 ft 488 kts 101°
2026-05-09 13:41 55.76491 -18.70305 39583 ft 490 kts 101°
2026-05-09 13:42 55.74332 -18.58836 39584 ft 490 kts 102°
2026-05-09 13:42 55.72158 -18.47364 39578 ft 490 kts 102°
2026-05-09 13:43 55.69976 -18.35902 39578 ft 491 kts 102°
2026-05-09 13:43 55.67792 -18.24515 39577 ft 491 kts 102°
2026-05-09 13:44 55.65584 -18.13063 39577 ft 493 kts 103°
2026-05-09 13:44 55.63353 -18.01563 39572 ft 494 kts 103°
2026-05-09 13:45 55.61108 -17.90061 39562 ft 495 kts 103°
2026-05-09 13:45 55.58850 -17.78567 39562 ft 495 kts 103°
2026-05-09 13:46 55.56584 -17.67090 39565 ft 495 kts 103°
2026-05-09 13:46 55.54308 -17.55629 39559 ft 495 kts 103°
2026-05-09 13:47 55.52019 -17.44172 39559 ft 495 kts 103°
2026-05-09 13:47 55.49718 -17.32724 39548 ft 495 kts 104°
2026-05-09 13:48 55.47408 -17.21298 39548 ft 495 kts 104°
2026-05-09 13:48 55.45085 -17.09868 39548 ft 495 kts 104°
2026-05-09 13:49 55.42752 -16.98456 39548 ft 495 kts 104°
2026-05-09 13:49 55.40408 -16.87061 39575 ft 495 kts 104°
2026-05-09 13:50 55.38050 -16.75653 39546 ft 498 kts 104°
2026-05-09 13:50 55.35672 -16.64218 39544 ft 498 kts 104°
2026-05-09 13:51 55.33279 -16.52785 39535 ft 498 kts 104°
2026-05-09 13:51 55.30878 -16.41374 39536 ft 498 kts 105°
2026-05-09 13:52 55.28464 -16.29965 39530 ft 498 kts 105°
2026-05-09 13:52 55.26044 -16.18588 39559 ft 498 kts 105°
2026-05-09 13:53 55.23606 -16.07181 39532 ft 501 kts 105°
2026-05-09 13:53 55.21166 -15.95844 39526 ft 501 kts 105°
2026-05-09 13:54 55.18701 -15.84449 39525 ft 501 kts 105°
2026-05-09 13:54 55.16208 -15.72994 39517 ft 501 kts 105°
2026-05-09 13:55 55.13738 -15.61700 39523 ft 501 kts 106°
2026-05-09 13:55 55.11240 -15.50340 39530 ft 501 kts 106°
2026-05-09 13:56 55.08727 -15.38972 39508 ft 502 kts 106°
2026-05-09 13:56 55.06200 -15.27608 39508 ft 502 kts 106°
2026-05-09 13:57 55.03664 -15.16265 39503 ft 502 kts 107°
2026-05-09 13:57 55.01185 -15.04892 39503 ft 499 kts 102°
2026-05-09 13:58 55.00074 -14.93157 39503 ft 487 kts 87°
2026-05-09 13:58 54.99984 -14.81367 39501 ft 487 kts 85°
2026-05-09 13:59 55.00049 -14.69577 39495 ft 487 kts 84°
2026-05-09 13:59 55.00099 -14.57763 39492 ft 488 kts 85°
2026-05-09 14:00 55.00111 -14.49866 39493 ft 488 kts 85°
2026-05-09 14:00 55.00103 -14.34145 39493 ft 488 kts 85°
2026-05-09 14:01 55.00081 -14.22320 39485 ft 489 kts 86°
2026-05-09 14:01 55.00048 -14.10459 39484 ft 490 kts 86°
2026-05-09 14:02 54.99421 -13.98601 39479 ft 497 kts 99°
2026-05-09 14:02 54.97297 -13.87157 39481 ft 501 kts 107°
2026-05-09 14:03 54.94818 -13.75838 39476 ft 500 kts 108°
2026-05-09 14:03 54.92289 -13.64562 39473 ft 501 kts 108°
2026-05-09 14:04 54.89773 -13.53276 39467 ft 501 kts 108°
2026-05-09 14:04 54.87263 -13.41989 39468 ft 501 kts 108°
2026-05-09 14:05 54.85174 -13.32620 39464 ft 501 kts 108°
2026-05-09 14:05 54.82650 -13.21354 39463 ft 501 kts 108°
2026-05-09 14:06 54.80115 -13.10107 39468 ft 501 kts 109°
2026-05-09 14:06 54.77572 -12.98884 39455 ft 500 kts 109°
2026-05-09 14:07 54.75016 -12.87672 39452 ft 500 kts 109°
2026-05-09 14:07 54.72452 -12.76479 39452 ft 500 kts 109°
2026-05-09 14:08 54.69878 -12.65301 39449 ft 500 kts 109°
2026-05-09 14:08 54.67291 -12.54127 39443 ft 500 kts 109°
2026-05-09 14:09 54.64697 -12.42977 39449 ft 501 kts 110°
2026-05-09 14:09 54.62085 -12.31810 39437 ft 502 kts 110°
2026-05-09 14:10 54.58145 -12.15078 39439 ft 502 kts 110°
2026-05-09 14:11 54.55503 -12.03932 39428 ft 502 kts 110°
2026-05-09 14:11 54.52853 -11.92807 39429 ft 502 kts 110°
2026-05-09 14:12 54.50189 -11.81682 39422 ft 503 kts 110°
2026-05-09 14:12 54.47508 -11.70539 39422 ft 505 kts 110°
2026-05-09 14:13 54.44813 -11.59399 39415 ft 505 kts 110°
2026-05-09 14:15 54.33902 -11.14871 39408 ft 506 kts 110°
2026-05-09 14:15 54.31146 -11.03763 39404 ft 506 kts 111°
2026-05-09 14:16 54.28383 -10.92684 39403 ft 506 kts 111°
2026-05-09 14:16 54.25624 -10.81677 39396 ft 506 kts 111°
2026-05-09 14:17 54.22842 -10.70633 39393 ft 506 kts 111°
2026-05-09 14:17 54.20047 -10.59592 39395 ft 507 kts 112°
2026-05-09 14:18 54.17240 -10.48563 39383 ft 507 kts 111°
2026-05-09 14:18 54.14415 -10.37506 39385 ft 508 kts 112°
2026-05-09 14:19 54.11583 -10.26483 39382 ft 507 kts 111°
2026-05-09 14:19 54.08735 -10.15455 39373 ft 508 kts 112°
2026-05-09 14:20 54.05886 -10.04473 39374 ft 507 kts 112°
2026-05-09 14:20 54.03022 -9.93489 39355 ft 509 kts 112°
2026-05-09 14:21 53.98710 -9.77048 39358 ft 509 kts 112°
2026-05-09 14:21 53.95813 -9.66071 39336 ft 508 kts 113°
2026-05-09 14:22 53.92913 -9.55142 39341 ft 509 kts 112°
2026-05-09 14:22 53.89996 -9.44192 39328 ft 508 kts 114°
2026-05-09 14:23 53.87076 -9.33286 39311 ft 510 kts 114°
2026-05-09 14:23 53.84136 -9.22356 39300 ft 509 kts 114°
2026-05-09 14:24 53.81196 -9.11486 39300 ft 509 kts 114°
2026-05-09 14:24 53.78237 -9.00588 39289 ft 509 kts 114°
2026-05-09 14:25 53.75276 -8.89738 39289 ft 508 kts 114°
2026-05-09 14:25 53.72297 -8.78873 39288 ft 510 kts 115°
2026-05-09 14:26 53.69316 -8.68054 39282 ft 508 kts 115°
2026-05-09 14:26 53.66319 -8.57227 39278 ft 509 kts 115°
2026-05-09 14:27 53.63326 -8.46465 39266 ft 507 kts 115°
2026-05-09 14:27 53.60317 -8.35695 39265 ft 508 kts 115°
2026-05-09 14:28 53.57303 -8.24956 39264 ft 507 kts 116°
2026-05-09 14:28 53.54272 -8.14207 39251 ft 509 kts 116°
2026-05-09 14:29 53.51234 -8.03483 39260 ft 507 kts 116°
2026-05-09 14:29 53.48185 -7.92766 39258 ft 510 kts 116°
2026-05-09 14:30 53.45127 -7.82067 39248 ft 506 kts 116°
2026-05-09 14:30 53.42091 -7.71492 39250 ft 508 kts 116°
2026-05-09 14:31 53.39014 -7.60827 39241 ft 507 kts 116°
2026-05-09 14:31 53.35937 -7.50209 39246 ft 508 kts 116°
2026-05-09 14:32 53.32841 -7.39573 39240 ft 507 kts 116°
2026-05-09 14:32 53.29744 -7.28980 39234 ft 507 kts 117°
2026-05-09 14:33 53.26629 -7.18375 39229 ft 508 kts 116°
2026-05-09 14:33 53.23514 -7.07815 39230 ft 508 kts 117°
2026-05-09 14:34 53.20378 -6.97234 39226 ft 508 kts 117°
2026-05-09 14:34 53.17242 -6.86697 39226 ft 508 kts 117°
2026-05-09 14:35 53.14086 -6.76141 39219 ft 509 kts 117°
2026-05-09 14:35 53.10926 -6.65620 39224 ft 508 kts 117°
2026-05-09 14:36 53.07754 -6.55105 39226 ft 509 kts 118°
2026-05-09 14:36 53.04574 -6.44603 39223 ft 508 kts 118°
2026-05-09 14:37 53.01377 -6.34094 39225 ft 511 kts 118°
2026-05-09 14:37 52.98182 -6.23647 39215 ft 510 kts 119°
2026-05-09 14:38 52.94947 -6.13104 39217 ft 511 kts 118°
2026-05-09 14:38 52.91712 -6.02615 39215 ft 510 kts 119°
2026-05-09 14:39 52.88507 -5.92260 39214 ft 508 kts 120°
2026-05-09 14:39 52.85270 -5.81849 39209 ft 508 kts 119°
2026-05-09 14:40 52.82039 -5.71494 39205 ft 506 kts 120°
2026-05-09 14:40 52.78802 -5.61176 39201 ft 506 kts 120°
2026-05-09 14:41 52.75558 -5.50880 39205 ft 505 kts 120°
2026-05-09 14:41 52.72322 -5.40563 39195 ft 507 kts 119°
2026-05-09 14:42 52.69104 -5.30230 39193 ft 506 kts 120°
2026-05-09 14:42 52.65885 -5.19930 39196 ft 507 kts 119°
2026-05-09 14:43 52.62647 -5.09639 39187 ft 504 kts 120°
2026-05-09 14:43 52.59420 -4.99428 39181 ft 503 kts 120°
2026-05-09 14:44 52.56189 -4.89258 39178 ft 500 kts 120°
2026-05-09 14:44 52.52965 -4.79148 39178 ft 499 kts 121°
2026-05-09 14:45 52.49731 -4.69050 39167 ft 500 kts 120°
2026-05-09 14:45 52.46488 -4.58967 39166 ft 500 kts 120°
2026-05-09 14:46 52.43238 -4.48900 39152 ft 500 kts 121°
2026-05-09 14:46 52.39987 -4.38873 39156 ft 496 kts 120°
2026-05-09 14:47 52.36752 -4.28931 39138 ft 495 kts 120°
2026-05-09 14:47 52.33509 -4.19010 39146 ft 495 kts 120°
2026-05-09 14:48 52.30276 -4.09159 39133 ft 495 kts 120°
2026-05-09 14:48 52.27016 -3.99264 39132 ft 495 kts 121°
2026-05-09 14:49 52.23749 -3.89385 39140 ft 495 kts 121°
2026-05-09 14:49 52.20478 -3.79536 39121 ft 494 kts 121°
2026-05-09 14:50 52.17198 -3.69699 39124 ft 493 kts 121°
2026-05-09 14:50 52.13916 -3.59896 39125 ft 493 kts 121°
2026-05-09 14:51 52.10620 -3.50089 39110 ft 493 kts 121°
2026-05-09 14:51 52.07322 -3.40313 39104 ft 493 kts 121°
2026-05-09 14:52 52.04576 -3.32201 39101 ft 492 kts 121°
2026-05-09 14:52 52.01271 -3.22476 39106 ft 492 kts 122°
2026-05-09 14:53 51.97961 -3.12776 39120 ft 491 kts 122°
2026-05-09 14:53 51.94644 -3.03090 39129 ft 491 kts 122°
2026-05-09 14:54 51.91321 -2.93426 39138 ft 491 kts 122°
2026-05-09 14:54 51.87985 -2.83761 39140 ft 492 kts 122°
2026-05-09 14:55 51.84640 -2.74111 39090 ft 492 kts 122°
2026-05-09 14:55 51.81289 -2.64473 39089 ft 492 kts 122°
2026-05-09 14:56 51.77927 -2.54842 39084 ft 492 kts 122°
2026-05-09 14:56 51.74566 -2.45252 39094 ft 491 kts 122°
2026-05-09 14:57 51.71200 -2.35682 39100 ft 490 kts 123°
2026-05-09 14:57 51.67830 -2.26140 39085 ft 489 kts 123°
2026-05-09 14:58 51.64455 -2.16622 39083 ft 489 kts 123°
2026-05-09 14:58 51.61072 -2.07114 39077 ft 489 kts 123°
2026-05-09 14:59 51.57682 -1.97624 39083 ft 489 kts 123°
2026-05-09 14:59 51.54285 -1.88147 39070 ft 489 kts 123°
2026-05-09 15:00 51.50885 -1.78698 39080 ft 489 kts 123°
2026-05-09 15:00 51.47619 -1.69120 39076 ft 492 kts 116°
2026-05-09 15:01 51.44849 -1.53181 39066 ft 497 kts 105°
2026-05-09 15:02 51.43401 -1.42353 39056 ft 497 kts 105°
2026-05-09 15:02 51.41942 -1.31512 39060 ft 497 kts 105°
2026-05-09 15:03 51.40446 -1.20692 39060 ft 497 kts 106°
2026-05-09 15:03 51.39387 -1.09715 39065 ft 501 kts 98°
2026-05-09 15:04 51.38771 -0.98604 39063 ft 501 kts 98°
2026-05-09 15:06 51.36431 -0.54126 39072 ft 502 kts 98°
2026-05-09 15:06 51.35808 -0.42994 39072 ft 502 kts 98°
2026-05-09 15:07 51.35172 -0.31798 39071 ft 502 kts 98°
2026-05-09 15:07 51.34529 -0.20680 39068 ft 502 kts 98°
2026-05-09 15:08 51.33875 -0.09557 39066 ft 502 kts 98°
2026-05-09 15:08 51.32864 0.07100 39098 ft 501 kts 99°
2026-05-09 15:10 51.28574 0.50916 39258 ft 500 kts 102°
2026-05-09 15:11 51.27505 0.61888 39237 ft 500 kts 102°
2026-05-09 15:11 51.26426 0.72846 39195 ft 499 kts 102°
2026-05-09 15:12 51.25335 0.83788 39153 ft 499 kts 102°
2026-05-09 15:12 51.24232 0.94739 39079 ft 499 kts 102°
2026-05-09 15:13 51.23121 1.05678 39083 ft 499 kts 102°
2026-05-09 15:13 51.21998 1.16615 39085 ft 499 kts 103°
2026-05-09 15:14 51.20865 1.27538 39085 ft 499 kts 103°
2026-05-09 15:14 51.19722 1.38463 39087 ft 499 kts 103°
2026-05-09 15:15 51.18570 1.49372 39082 ft 500 kts 103°
2026-05-09 15:15 51.17405 1.60300 39083 ft 500 kts 103°
2026-05-09 15:16 51.16231 1.71221 39078 ft 500 kts 103°
2026-05-09 15:16 51.15047 1.82128 39078 ft 500 kts 103°
2026-05-09 15:17 51.13851 1.93040 39065 ft 500 kts 103°
2026-05-09 15:17 51.12889 2.04016 39072 ft 502 kts 99°
2026-05-09 15:18 51.12259 2.15096 39075 ft 503 kts 98°
2026-05-09 15:18 51.11667 2.26189 39068 ft 503 kts 98°
2026-05-09 15:19 51.11065 2.37272 39055 ft 503 kts 98°
2026-05-09 15:19 51.10446 2.48352 39057 ft 503 kts 98°
2026-05-09 15:20 51.09353 2.64924 39052 ft 499 kts 105°
2026-05-09 15:21 51.07637 2.75568 39050 ft 497 kts 109°
2026-05-09 15:21 51.05723 2.86123 39071 ft 497 kts 110°
2026-05-09 15:22 51.03776 2.96649 39064 ft 496 kts 110°
2026-05-09 15:22 51.01834 3.07169 39061 ft 496 kts 110°
2026-05-09 15:23 50.99892 3.17681 39054 ft 496 kts 110°
2026-05-09 15:23 50.97956 3.28111 39048 ft 496 kts 110°
2026-05-09 15:24 50.95995 3.38619 39046 ft 496 kts 110°
2026-05-09 15:24 50.94030 3.49090 39042 ft 496 kts 110°
2026-05-09 15:25 50.92053 3.59562 39041 ft 496 kts 110°
2026-05-09 15:25 50.90066 3.70030 39040 ft 496 kts 110°
2026-05-09 15:26 50.87032 3.85699 39043 ft 496 kts 110°
2026-05-09 15:26 50.84999 3.96126 39050 ft 496 kts 110°
2026-05-09 15:27 50.82961 4.06537 39054 ft 496 kts 111°
2026-05-09 15:27 50.80914 4.16951 39062 ft 496 kts 111°
2026-05-09 15:28 50.78857 4.27358 39065 ft 496 kts 111°
2026-05-09 15:28 50.76793 4.37747 39070 ft 496 kts 111°
2026-05-09 15:29 50.74721 4.48117 39070 ft 495 kts 111°
2026-05-09 15:29 50.72637 4.58491 39066 ft 495 kts 111°
2026-05-09 15:30 50.70583 4.68875 39044 ft 496 kts 110°
2026-05-09 15:30 50.68578 4.79282 39051 ft 496 kts 110°
2026-05-09 15:31 50.66561 4.89681 39047 ft 496 kts 110°
2026-05-09 15:31 50.64499 5.00062 39050 ft 496 kts 111°
2026-05-09 15:32 50.62357 5.10387 39053 ft 496 kts 111°
2026-05-09 15:32 50.60204 5.20698 39054 ft 496 kts 111°
2026-05-09 15:33 50.58052 5.31026 38914 ft 496 kts 111°
2026-05-09 15:33 50.56981 5.36163 38679 ft 494 kts 111°
2026-05-09 15:33 50.55908 5.41301 38402 ft 494 kts 111°
2026-05-09 15:34 50.54836 5.46418 38126 ft 493 kts 111°
2026-05-09 15:34 50.53762 5.51528 37838 ft 492 kts 112°
2026-05-09 15:34 50.52692 5.56613 37338 ft 487 kts 112°
2026-05-09 15:34 50.51632 5.61639 36739 ft 483 kts 111°
2026-05-09 15:35 50.50612 5.66582 36160 ft 481 kts 110°
2026-05-09 15:35 50.49654 5.71602 35547 ft 479 kts 109°
2026-05-09 15:35 50.48731 5.76643 35150 ft 482 kts 109°
2026-05-09 15:35 50.48109 5.80071 35055 ft 484 kts 109°
2026-05-09 15:36 50.46247 5.90228 35044 ft 484 kts 109°
2026-05-09 15:36 50.44349 6.00360 35042 ft 483 kts 110°
2026-05-09 15:37 50.42123 6.12076 34575 ft 478 kts 109°
2026-05-09 15:37 50.41477 6.15457 33974 ft 481 kts 109°
2026-05-09 15:37 50.40512 6.20495 32908 ft 482 kts 110°
2026-05-09 15:38 50.39553 6.25499 31359 ft 480 kts 110°
2026-05-09 15:38 50.38582 6.30547 29490 ft 485 kts 110°
2026-05-09 15:38 50.37602 6.35616 27575 ft 488 kts 110°
2026-05-09 15:38 50.36725 6.40679 26061 ft 490 kts 104°
2026-05-09 15:39 50.36212 6.46057 25221 ft 492 kts 99°
2026-05-09 15:39 50.35820 6.51321 24727 ft 483 kts 98°
2026-05-09 15:39 50.35477 6.56506 24234 ft 475 kts 98°
2026-05-09 15:39 50.35158 6.61556 23700 ft 469 kts 98°
2026-05-09 15:40 50.34844 6.66573 23092 ft 463 kts 98°
2026-05-09 15:40 50.34530 6.71561 22565 ft 460 kts 98°
2026-05-09 15:40 50.34211 6.76600 22022 ft 457 kts 97°
2026-05-09 15:40 50.33904 6.81538 21497 ft 454 kts 98°
2026-05-09 15:41 50.33362 6.86379 20979 ft 449 kts 108°
2026-05-09 15:41 50.32257 6.90890 20450 ft 443 kts 116°
2026-05-09 15:41 50.30964 6.95251 19915 ft 440 kts 117°
2026-05-09 15:41 50.29659 6.99568 19398 ft 437 kts 117°
2026-05-09 15:42 50.28367 7.03856 18872 ft 435 kts 117°
2026-05-09 15:42 50.27088 7.08114 18351 ft 432 kts 117°
2026-05-09 15:42 50.25815 7.12360 17773 ft 429 kts 117°
2026-05-09 15:42 50.24549 7.16575 17251 ft 427 kts 117°
2026-05-09 15:43 50.23293 7.20754 16744 ft 424 kts 117°
2026-05-09 15:43 50.22046 7.24902 16231 ft 421 kts 117°
2026-05-09 15:43 50.20820 7.28969 15737 ft 418 kts 117°
2026-05-09 15:43 50.19587 7.33126 15436 ft 416 kts 115°
2026-05-09 15:44 50.18601 7.37291 15262 ft 410 kts 112°
2026-05-09 15:44 50.17335 7.41081 14574 ft 405 kts 126°
2026-05-09 15:44 50.16541 7.42745 14194 ft 404 kts 131°
2026-05-09 15:44 50.14955 7.45638 13552 ft 402 kts 133°
2026-05-09 15:45 50.13110 7.48894 12831 ft 399 kts 133°
2026-05-09 15:45 50.11279 7.52104 12177 ft 394 kts 133°
2026-05-09 15:45 50.09466 7.55274 11535 ft 390 kts 133°
2026-05-09 15:45 50.07667 7.58409 11160 ft 388 kts 133°
2026-05-09 15:46 50.05865 7.61544 11053 ft 388 kts 133°
2026-05-09 15:46 50.04068 7.64668 11055 ft 388 kts 133°
2026-05-09 15:46 50.02268 7.67795 11060 ft 387 kts 133°
2026-05-09 15:46 50.00472 7.70914 11060 ft 387 kts 133°
2026-05-09 15:47 49.98844 7.74210 10856 ft 381 kts 121°
2026-05-09 15:47 49.97844 7.78001 10174 ft 381 kts 105°
2026-05-09 15:47 49.97236 7.81925 9805 ft 362 kts 103°
2026-05-09 15:47 49.96706 7.85607 9395 ft 336 kts 103°
2026-05-09 15:48 49.96219 7.89023 9022 ft 313 kts 103°
2026-05-09 15:48 49.95767 7.92222 8553 ft 297 kts 103°
2026-05-09 15:48 49.95332 7.95305 7914 ft 289 kts 103°
2026-05-09 15:48 49.94907 7.98323 7360 ft 285 kts 103°
2026-05-09 15:49 49.94487 8.01331 6947 ft 285 kts 103°
2026-05-09 15:49 49.94075 8.04322 6610 ft 280 kts 103°
2026-05-09 15:49 49.93671 8.07254 6265 ft 276 kts 104°
2026-05-09 15:49 49.93276 8.10099 6051 ft 261 kts 104°
2026-05-09 15:50 49.93196 8.12800 5787 ft 244 kts 83°
2026-05-09 15:50 49.93600 8.15273 5511 ft 230 kts 70°
2026-05-09 15:50 49.94152 8.17515 5248 ft 215 kts 69°
2026-05-09 15:50 49.94666 8.19617 4933 ft 200 kts 70°
2026-05-09 15:51 49.95126 8.21569 4648 ft 186 kts 70°
2026-05-09 15:51 49.95563 8.23400 4372 ft 177 kts 70°
2026-05-09 15:51 49.95991 8.25183 4126 ft 176 kts 70°
2026-05-09 15:51 49.96417 8.26962 3878 ft 176 kts 69°
2026-05-09 15:52 49.97268 8.30510 3425 ft 174 kts 69°
2026-05-09 15:52 49.97690 8.32273 3190 ft 174 kts 70°
2026-05-09 15:52 49.98110 8.34029 2954 ft 173 kts 69°
2026-05-09 15:53 49.98530 8.35783 2730 ft 173 kts 69°
2026-05-09 15:53 49.98941 8.37498 2506 ft 170 kts 69°
2026-05-09 15:53 49.99347 8.39194 2287 ft 160 kts 69°
2026-05-09 15:53 49.99720 8.40750 2077 ft 151 kts 69°
2026-05-09 15:54 50.00072 8.42224 1874 ft 140 kts 70°
2026-05-09 15:54 50.00402 8.43604 1712 ft 134 kts 69°
2026-05-09 15:54 50.00727 8.44959 1493 ft 133 kts 69°
2026-05-09 15:54 50.01057 8.46338 1279 ft 138 kts 69°
2026-05-09 15:55 50.01387 8.47729 1081 ft 137 kts 68°
2026-05-09 15:55 50.01707 8.49110 1007 ft 136 kts 70°
2026-05-09 15:55 50.02035 8.50520 839 ft 140 kts 70°
2026-05-09 15:55 50.02391 8.51915 601 ft 137 kts 68°
2026-05-09 15:56 50.02728 8.53277 406 ft 135 kts 68°
2026-05-09 15:56 50.03039 8.54594 357 ft 118 kts 71°
2026-05-09 15:56 50.03279 8.55629 367 ft 86 kts 70°
2026-05-09 15:56 50.03448 8.56338 370 ft 55 kts 69°
2026-05-09 15:57 50.03552 8.56773 368 ft 39 kts 69°
2026-05-09 15:57 50.03705 8.57091 371 ft 28 kts 40°
2026-05-09 15:57 50.03799 8.57213 376 ft 17 kts 39°
2026-05-09 15:57 50.03895 8.57336 376 ft 19 kts 40°
2026-05-09 15:58 50.03977 8.57500 376 ft 20 kts 63°
2026-05-09 15:58 50.04029 8.57716 376 ft 22 kts 71°
2026-05-09 15:58 50.04082 8.57955 374 ft 24 kts 71°
2026-05-09 15:58 50.04140 8.58205 374 ft 26 kts 69°
2026-05-09 15:59 50.04205 8.58472 373 ft 27 kts 69°
2026-05-09 15:59 50.04326 8.58623 376 ft 22 kts
2026-05-09 15:59 50.04442 8.58647 376 ft 16 kts
2026-05-09 15:59 50.04552 8.58686 379 ft 15 kts 27°
2026-05-09 16:00 50.04617 8.58745 370 ft 0 kts 19°
2026-05-09 16:00 50.04656 8.58757 371 ft 7 kts
2026-05-09 16:00 50.04721 8.58768 374 ft 11 kts 356°
2026-05-09 16:01 50.04804 8.58730 372 ft 14 kts 340°
2026-05-09 16:01 50.04906 8.58674 375 ft 17 kts 340°
2026-05-09 16:01 50.04950 8.58581 373 ft 6 kts 249°
2026-05-09 16:01 50.04921 8.58508 374 ft 9 kts 242°
2026-05-09 16:02 50.04876 8.58425 376 ft 10 kts 192°
2026-05-09 16:02 50.04806 8.58463 374 ft 0 kts 159°